• In India
  • List of Countries
  • For 7 days
  • Water Temperature
  • Satellite Maps
  • Weather Map
  • Weather Widgets
  • user-avatar
    Login

    Hourly Weather Lezhe

    Today, 21 September, Friday

    Time Temperature Precipitation Wind Pressure Humidity
    00:00 +20°C° 0 mm 2 mps 738 mmHg 53%
    01:00 +20°C° 0 mm 2 mps 738 mmHg 54%
    02:00 +20°C° 0 mm 2 mps 738 mmHg 54%
    03:00 +20°C° 0 mm 2 mps 738 mmHg 55%
    04:00 +19°C° 0 mm 2 mps 738 mmHg 55%
    05:00 +20°C° 0 mm 2 mps 738 mmHg 54%
    06:00 +21°C° 0 mm 2 mps 738 mmHg 53%
    07:00 +24°C° 0 mm 2 mps 739 mmHg 53%
    08:00 +26°C° 0 mm 2 mps 738 mmHg 47%
    09:00 +28°C° 0 mm 2 mps 738 mmHg 41%
    10:00 +30°C° 0 mm 1 mps 738 mmHg 35%
    11:00 +30°C° 0 mm 2 mps 738 mmHg 34%
    12:00 +31°C° 0 mm 2 mps 738 mmHg 32%
    13:00 +31°C° 0 mm 3 mps 738 mmHg 31%
    14:00 +31°C° 0 mm 2 mps 738 mmHg 35%
    15:00 +30°C° 0 mm 2 mps 737 mmHg 38%
    16:00 +29°C° 0 mm 2 mps 737 mmHg 41%
    17:00 +27°C° 0 mm 2 mps 737 mmHg 50%
    18:00 +24°C° 0 mm 1 mps 738 mmHg 60%
    19:00 +20°C° 0 mm 0 mps 738 mmHg 69%
    20:00 +22°C° 0 mm 1 mps 738 mmHg 71%
    21:00 +21°C° 0 mm 1 mps 738 mmHg 73%
    22:00 +21°C° 0 mm 1 mps 738 mmHg 74%
    23:00 +21°C° 0 mm 1 mps 739 mmHg 74%

    Tomorrow, 22 September, Saturday

    Time Temperature Precipitation Wind Pressure Humidity
    00:00 +20°C° 0 mm 1 mps 739 mmHg 74%
    01:00 +20°C° 0 mm 1 mps 739 mmHg 74%
    02:00 +20°C° 0 mm 1 mps 739 mmHg 74%
    03:00 +20°C° 0 mm 1 mps 738 mmHg 73%
    04:00 +20°C° 0 mm 1 mps 738 mmHg 73%
    05:00 +21°C° 0 mm 1 mps 739 mmHg 68%
    06:00 +22°C° 0 mm 1 mps 739 mmHg 64%
    07:00 +23°C° 0 mm 1 mps 739 mmHg 59%
    08:00 +25°C° 0 mm 1 mps 739 mmHg 53%
    09:00 +27°C° 0 mm 1 mps 739 mmHg 47%
    10:00 +29°C° 0 mm 1 mps 739 mmHg 42%
    11:00 +29°C° 0 mm 2 mps 739 mmHg 40%
    12:00 +30°C° 0 mm 2 mps 739 mmHg 39%
    13:00 +30°C° 0 mm 3 mps 739 mmHg 38%
    14:00 +30°C° 0 mm 3 mps 739 mmHg 42%
    15:00 +29°C° 0 mm 3 mps 739 mmHg 46%
    16:00 +28°C° 0 mm 3 mps 738 mmHg 50%
    17:00 +26°C° 0 mm 2 mps 739 mmHg 60%
    18:00 +24°C° 0 mm 1 mps 739 mmHg 71%
    19:00 +22°C° 0 mm 1 mps 740 mmHg 82%
    20:00 +21°C° 0 mm 1 mps 740 mmHg 81%
    21:00 +21°C° 0 mm 1 mps 740 mmHg 80%
    22:00 +21°C° 0 mm 1 mps 741 mmHg 79%
    23:00 +21°C° 0 mm 1 mps 741 mmHg 78%

    Day after tomorrow, 23 September, Sunday

    Time Temperature Precipitation Wind Pressure Humidity
    00:00 +20°C° 0 mm 1 mps 741 mmHg 77%
    01:00 +20°C° 0 mm 1 mps 741 mmHg 76%
    02:00 +20°C° 0 mm 1 mps 741 mmHg 76%
    03:00 +20°C° 0 mm 1 mps 741 mmHg 77%
    04:00 +18°C° 0 mm 2 mps 741 mmHg 77%
    05:00 +19°C° 0 mm 2 mps 741 mmHg 73%
    06:00 +20°C° 0 mm 2 mps 741 mmHg 69%
    07:00 +23°C° 0 mm 2 mps 741 mmHg 65%
    08:00 +25°C° 0 mm 2 mps 741 mmHg 57%
    09:00 +27°C° 0 mm 1 mps 742 mmHg 48%
    10:00 +30°C° 0 mm 1 mps 742 mmHg 40%
    11:00 +30°C° 0 mm 2 mps 742 mmHg 37%
    12:00 +31°C° 0 mm 2 mps 741 mmHg 35%
    13:00 +33°C° 0 mm 3 mps 741 mmHg 33%
    14:00 +31°C° 0 mm 3 mps 741 mmHg 36%
    15:00 +31°C° 0 mm 3 mps 740 mmHg 39%
    16:00 +30°C° 0 mm 3 mps 740 mmHg 41%
    17:00 +28°C° 0 mm 2 mps 740 mmHg 51%
    18:00 +25°C° 0 mm 2 mps 741 mmHg 60%
    19:00 +23°C° 0 mm 1 mps 741 mmHg 70%
    20:00 +22°C° 0 mm 1 mps 741 mmHg 69%
    21:00 +22°C° 0 mm 1 mps 741 mmHg 68%
    22:00 +22°C° 0 mm 1 mps 741 mmHg 67%
    23:00 +22°C° 0 mm 1 mps 740 mmHg 67%

    24 September, Monday

    Time Temperature Precipitation Wind Pressure Humidity
    00:00 +21°C° 0 mm 1 mps 740 mmHg 66%
    01:00 +21°C° 0 mm 1 mps 740 mmHg 66%
    02:00 +21°C° 0 mm 1 mps 739 mmHg 66%
    03:00 +20°C° 0 mm 1 mps 739 mmHg 66%
    04:00 +20°C° 0 mm 1 mps 739 mmHg 66%
    05:00 +20°C° 0 mm 2 mps 738 mmHg 63%
    06:00 +21°C° 0 mm 2 mps 738 mmHg 60%
    07:00 +23°C° 0 mm 2 mps 738 mmHg 56%
    08:00 +25°C° 0 mm 2 mps 738 mmHg 50%
    09:00 +27°C° 0 mm 2 mps 738 mmHg 44%
    10:00 +29°C° 0 mm 2 mps 738 mmHg 39%
    11:00 +30°C° 0 mm 3 mps 738 mmHg 38%
    12:00 +30°C° 0 mm 3 mps 737 mmHg 37%
    13:00 +31°C° 0 mm 3 mps 737 mmHg 36%
    14:00 +30°C° 0 mm 3 mps 737 mmHg 39%
    15:00 +29°C° 0 mm 2 mps 737 mmHg 42%
    16:00 +29°C° 0 mm 2 mps 737 mmHg 45%
    17:00 +26°C° 0 mm 2 mps 737 mmHg 52%
    18:00 +24°C° 0 mm 2 mps 738 mmHg 60%
    19:00 +20°C° 0 mm 2 mps 738 mmHg 67%
    20:00 +19°C° 0 mm 3 mps 739 mmHg 66%
    21:00 +18°C° 0 mm 4 mps 739 mmHg 65%
    22:00 +16°C° 0 mm 5 mps 740 mmHg 64%
    23:00 +15°C° 0 mm 5 mps 740 mmHg 64%

    25 September, Tuesday

    Time Temperature Precipitation Wind Pressure Humidity
    00:00 +15°C° 0 mm 6 mps 740 mmHg 64%
    01:00 +14°C° 0 mm 6 mps 740 mmHg 64%
    02:00 +14°C° 0 mm 6 mps 740 mmHg 64%
    03:00 +14°C° 0 mm 6 mps 740 mmHg 65%
    04:00 +12°C° 0 mm 7 mps 741 mmHg 65%
    05:00 +12°C° 0.4 mm 7 mps 741 mmHg 67%
    06:00 +12°C° 0.4 mm 7 mps 742 mmHg 69%
    07:00 +11°C° 0.4 mm 7 mps 742 mmHg 70%
    08:00 +12°C° 0.1 mm 7 mps 742 mmHg 64%
    09:00 +14°C° 0.1 mm 7 mps 742 mmHg 59%
    10:00 +16°C° 0.1 mm 7 mps 742 mmHg 53%
    11:00 +17°C° 0 mm 7 mps 742 mmHg 47%
    12:00 +18°C° 0 mm 7 mps 742 mmHg 41%
    13:00 +20°C° 0 mm 6 mps 742 mmHg 36%
    14:00 +20°C° 0 mm 6 mps 742 mmHg 36%
    15:00 +18°C° 0 mm 7 mps 742 mmHg 36%
    16:00 +18°C° 0 mm 7 mps 742 mmHg 36%
    17:00 +16°C° 0 mm 7 mps 743 mmHg 38%
    18:00 +14°C° 0 mm 7 mps 743 mmHg 40%
    19:00 +11°C° 0 mm 7 mps 744 mmHg 42%
    20:00 +11°C° 0 mm 7 mps 744 mmHg 44%
    21:00 +10°C° 0 mm 7 mps 745 mmHg 45%
    22:00 +9°C° 0 mm 7 mps 745 mmHg 47%
    23:00 +9°C° 0 mm 7 mps 745 mmHg 47%

    26 September, Wednesday

    Time Temperature Precipitation Wind Pressure Humidity
    00:00 +8°C° 0 mm 7 mps 746 mmHg 48%
    01:00 +8°C° 0 mm 7 mps 746 mmHg 48%
    02:00 +8°C° 0 mm 7 mps 746 mmHg 48%
    03:00 +6°C° 0 mm 7 mps 746 mmHg 47%
    04:00 +7°C° 0 mm 6 mps 746 mmHg 47%
    05:00 +8°C° 0 mm 6 mps 746 mmHg 45%
    06:00 +8°C° 0 mm 6 mps 746 mmHg 43%
    07:00 +9°C° 0 mm 6 mps 747 mmHg 40%
    08:00 +11°C° 0 mm 6 mps 747 mmHg 35%
    09:00 +14°C° 0 mm 6 mps 747 mmHg 30%
    10:00 +16°C° 0 mm 6 mps 747 mmHg 25%
    11:00 +17°C° 0 mm 6 mps 746 mmHg 23%
    12:00 +19°C° 0 mm 5 mps 746 mmHg 21%
    13:00 +20°C° 0 mm 5 mps 746 mmHg 19%
    14:00 +20°C° 0 mm 5 mps 746 mmHg 19%
    15:00 +20°C° 0 mm 5 mps 745 mmHg 20%
    16:00 +19°C° 0 mm 4 mps 745 mmHg 20%
    17:00 +17°C° 0 mm 4 mps 746 mmHg 25%
    18:00 +14°C° 0 mm 4 mps 746 mmHg 29%
    19:00 +11°C° 0 mm 3 mps 746 mmHg 33%
    20:00 +11°C° 0 mm 3 mps 746 mmHg 35%
    21:00 +10°C° 0 mm 4 mps 747 mmHg 37%
    22:00 +10°C° 0 mm 4 mps 747 mmHg 39%
    23:00 +10°C° 0 mm 4 mps 747 mmHg 39%
    Show more